Retour au catalogue

TITAN 3C TRANSTAGE DEB

ActifHEO
NORAD 27793·DEBRIS·🇺🇸 United States

Lancé Dec 21, 1965 depuis Cape Canaveral Space Force Station

Loading…

Prochains Passages (prochaines 24 heures)

TLE

FraisSource: Space-Track

Époque: Sep 11, 2026, 13:00 UTC

1 27793U 65108BH  26254.54194269  .00002884  00000-0  92711-2 0  9991
2 27793  26.5546   6.0239 6522003 147.4576 278.9568  3.14060135139113

Suivez TITAN 3C TRANSTAGE DEB en temps réel avec AllMySat

Download on the App Store